Terminal Aerodrome Forecast
Issued by NWS

Home | Current Version | Previous Version | Text Only | Print | Product List | Glossary On
Versions: 1 2 3 4 5 6 7 8 9 10 11 12 13 14 15 16 17 18 19 20
000
FTUS45 KSLC 292332
TAFBCE
TAF
KBCE 292332Z 3000/3024 33013G20KT P6SM -SHRA VCTS SCT025CB BKN050
     FM300200 33007KT P6SM VCSH SCT030 BKN060
     FM301200 05009KT P6SM -SHRA SCT020 BKN040=

USA.gov is the U.S. government's official web portal to all federal, state and local government web resources and services.